This is the latest recevied weather packets stored in our database for station/object SR9SMR. If no packets are shown the sender has not sent any weather packets the latest 10 day(s).
| Time | Temp. | Humidity | Pressure | Rain* | Wind** | Luminosity | Snow |
|---|---|---|---|---|---|---|---|
| 1777655949 | 11.11° C | 100% | 907.3 hPa | - | - | - | - |
| 1777655641 | 11.11° C | 100% | 907 hPa | - | - | - | - |
| 1777655499 | 11.11° C | 100% | 908.4 hPa | - | - | - | - |
| 1777655302 | 10.56° C | 100% | 908.3 hPa | - | - | - | - |
| 1777654992 | 10.56° C | 100% | 909.9 hPa | - | - | - | - |
| 1777654681 | 11.11° C | 100% | 907.5 hPa | - | - | - | - |
| 1777654485 | 11.11° C | 100% | 907.5 hPa | - | - | - | - |
| 1777654176 | 11.11° C | 100% | 907 hPa | - | - | - | - |
| 1777653867 | 11.11° C | 100% | 907.6 hPa | - | - | - | - |
| 1777653670 | 11.11° C | 100% | 906.9 hPa | - | - | - | - |
| 1777653359 | 11.11° C | 100% | 907.6 hPa | - | - | - | - |
| 1777653049 | 11.67° C | 100% | 907.3 hPa | - | - | - | - |
| 1777652852 | 11.11° C | 100% | 908.3 hPa | - | - | - | - |
| 1777652543 | 11.67° C | 100% | 911 hPa | - | - | - | - |
| 1777652030 | 11.67° C | 100% | 910.8 hPa | - | - | - | - |
| 1777651910 | 12.22° C | 100% | 909.4 hPa | - | - | - | - |
| 1777651788 | 12.78° C | 100% | 907.9 hPa | - | - | - | - |
| 1777651726 | 12.78° C | 100% | 908.4 hPa | - | - | - | - |
| 1777651667 | 12.78° C | 100% | 908.8 hPa | - | - | - | - |
| 1777651547 | 12.78° C | 100% | 908.9 hPa | - | - | - | - |
| 1777651422 | 12.78° C | 100% | 908.9 hPa | - | - | - | - |
| 1777651052 | 12.22° C | 100% | 908.2 hPa | - | - | - | - |
| 1777650856 | 11.67° C | 100% | 907.6 hPa | - | - | - | - |
| 1777650547 | 11.67° C | 100% | 907.8 hPa | - | - | - | - |
| 1777650238 | 11.67° C | 100% | 907.6 hPa | - | - | - | - |
* Rain since midnight (hover to see other rain measurements)
** Current wind speed in m/s (hover to see current wind gust speed)